Location: ECC Obs
(38.4314°N, 90.9815°W)
Time: 04:20:47
(UTC-05:00)

A-11 Canister half - All Passes

Search period start: 10 April 2020 00:00
Search period end: 20 April 2020 00:00
Orbit: 1516 x 1683 km, 47.2° (Epoch: 09 April)

Date Brightness Start Highest point End Pass type
(mag) Time Alt. Az. Time Alt. Az. Time Alt. Az.
10 Apr - 02:29:17 10° SSW 02:38:05 45° SE 02:47:12 10° ENE visible
10 Apr - 04:33:04 10° WSW 04:42:42 75° NNW 04:52:46 10° ENE visible
10 Apr - 06:39:24 10° WNW 06:48:57 52° N 06:58:45 10° ENE daylight
10 Apr - 08:45:19 10° WNW 08:55:20 69° NNE 09:05:30 10° ESE daylight
10 Apr - 10:50:39 10° WNW 11:00:21 54° SW 11:10:05 10° SSE daylight
10 Apr - 12:59:42 10° W 13:03:44 13° WSW 13:07:47 10° SW daylight
11 Apr - 02:06:35 10° SSW 02:15:14 42° SE 02:24:10 10° ENE visible
11 Apr - 04:10:08 10° WSW 04:19:45 77° NNW 04:29:46 10° ENE visible
11 Apr - 06:16:24 10° WNW 06:25:55 52° N 06:35:43 10° ENE daylight
11 Apr - 08:22:22 10° WNW 08:32:20 67° NNE 08:42:28 10° ESE daylight
11 Apr - 10:27:40 10° WNW 10:37:26 57° SW 10:47:16 10° SSE daylight
11 Apr - 12:36:03 10° W 12:40:55 15° WSW 12:45:46 10° SSW daylight
12 Apr - 01:43:54 10° SSW 01:52:23 39° SE 02:01:09 10° ENE visible
12 Apr - 03:47:12 10° WSW 03:56:48 80° NNW 04:06:48 10° ENE visible
12 Apr - 05:53:24 10° W 06:02:53 52° N 06:12:41 10° ENE visible
12 Apr - 07:59:25 10° WNW 08:09:20 65° NNE 08:19:26 10° ESE daylight
12 Apr - 10:04:41 10° WNW 10:14:32 60° SW 10:24:26 10° SE daylight
12 Apr - 12:12:34 10° W 12:18:05 16° WSW 12:23:36 10° SSW daylight
13 Apr - 01:21:14 10° SSW 01:29:33 36° SE 01:38:05 10° ENE visible
13 Apr - 03:24:16 10° WSW 03:33:50 83° NNW 03:43:49 10° ENE visible
13 Apr - 05:30:24 10° W 05:39:51 52° N 05:49:38 10° ENE visible
13 Apr - 07:36:28 10° WNW 07:46:20 63° NNE 07:56:23 10° E daylight
13 Apr - 09:41:43 10° WNW 09:51:36 64° SW 10:01:35 10° SE daylight
13 Apr - 11:49:11 10° W 11:55:15 18° WSW 12:01:20 10° SSW daylight
14 Apr - 00:58:36 10° S 01:06:42 34° SE 01:15:01 10° ENE visible
14 Apr - 03:01:21 10° WSW 03:10:54 86° NNW 03:20:51 10° ENE visible
14 Apr - 05:07:23 10° W 05:16:49 53° N 05:26:35 10° ENE visible
14 Apr - 07:13:31 10° WNW 07:23:19 61° NNE 07:33:21 10° E daylight
14 Apr - 09:18:46 10° WNW 09:28:41 67° SW 09:38:43 10° SE daylight
14 Apr - 11:25:53 10° W 11:32:24 20° SW 11:38:58 10° SSW daylight
15 Apr - 00:35:59 10° S 00:43:52 31° SE 00:51:57 10° ENE visible
15 Apr - 02:38:28 10° WSW 02:47:58 89° NNW 02:57:53 10° ENE visible
15 Apr - 04:44:24 10° W 04:53:48 53° N 05:03:33 10° ENE visible
15 Apr - 06:50:33 10° WNW 07:00:18 60° NNE 07:10:18 10° E daylight
15 Apr - 08:55:49 10° WNW 09:05:45 71° SW 09:15:50 10° SE daylight
15 Apr - 11:02:37 10° W 11:09:34 21° SW 11:16:33 10° S daylight
16 Apr - 00:13:23 10° S 00:21:02 29° SE 00:28:51 10° ENE visible
16 Apr - 02:15:34 10° SW 02:25:02 87° SSE 02:34:54 10° ENE visible
16 Apr - 04:21:24 10° W 04:30:47 54° N 04:40:32 10° ENE visible
16 Apr - 06:27:36 10° WNW 06:37:18 58° NNE 06:47:15 10° E daylight
16 Apr - 08:32:52 10° WNW 08:42:49 74° SW 08:52:56 10° SE daylight
16 Apr - 10:39:25 10° W 10:46:43 23° SW 10:54:04 10° S daylight
16 Apr - 23:50:50 10° S 23:58:12 27° SE 00:05:44 10° ENE visible
17 Apr - 01:52:41 10° SW 02:02:07 84° SE 02:11:56 10° ENE visible
17 Apr - 03:58:24 10° W 04:07:47 55° N 04:17:31 10° ENE visible
17 Apr - 06:04:39 10° WNW 06:14:17 57° NNE 06:24:11 10° E daylight
17 Apr - 08:09:56 10° WNW 08:19:53 78° SW 08:30:02 10° SE daylight
17 Apr - 10:16:16 10° WNW 10:23:53 25° SW 10:31:32 10° S daylight
17 Apr - 23:28:19 10° S 23:35:24 25° SE 23:42:37 10° ENE visible
18 Apr - 01:29:49 10° SW 01:39:12 80° SE 01:48:58 10° ENE visible
18 Apr - 03:35:25 10° W 03:44:46 56° NNW 03:54:30 10° ENE visible
18 Apr - 05:41:41 10° WNW 05:51:16 56° NNE 06:01:08 10° E visible
18 Apr - 07:46:59 10° WNW 07:56:57 81° SW 08:07:06 10° SE daylight
18 Apr - 09:53:08 10° WNW 10:01:01 27° SW 10:08:59 10° S daylight
18 Apr - 23:05:50 10° S 23:12:35 23° SE 23:19:27 10° E visible
19 Apr - 01:06:58 10° SW 01:16:18 76° SE 01:26:00 10° ENE visible
19 Apr - 03:12:25 10° W 03:21:46 57° NNW 03:31:29 10° ENE visible
19 Apr - 05:18:43 10° WNW 05:28:15 55° NNE 05:38:04 10° E visible
19 Apr - 07:24:03 10° WNW 07:34:00 84° SW 07:44:10 10° SE daylight
19 Apr - 09:30:02 10° WNW 09:38:09 29° SW 09:46:23 10° S daylight
19 Apr - 22:43:24 10° S 22:49:46 21° SE 22:56:14 10° E visible
